Aérodrome :
LOGIN :

S'inscrire | Disclaimer

   EN    FR    IT 

 










Légende :    VFR   VFR Marginal   IFR   IFR Intensif   IFR Très Intensif
Visi : 
Plafond : 
>= 8 km
>= 3000ft
5 à 8 km
1000 à 3000 ft
1500m à 5 km
500 à 1000 ft
800 à 1500m
200 à 500 ft
< 800m
< 200 ft
Symboles :   Orages  Brouillard  Fortes neiges  Fortes précipitations  Vent > 20 kt
SIGMETs :   Divers  Orages  Givrage  Turbulence  Onde Orograph.  Cendres Volcan.






- Altitude de l'aérodrome : 1411 ft
- Code IATA : GVA


LSGG - Genève Cointrin

DERNIER METAR :
  • 152020Z 04014KT 9999 FEW015 BKN028 01/M03 Q1024 NOSIG

METARs EXPIRÉS :
  • 151950Z 03012KT 9999 FEW015 BKN023 01/M02 Q1023 NOSIG
  • 151920Z 04012KT 9999 SCT019 BKN024 02/M01 Q1023 NOSIG
  • 151850Z 04013G23KT 9999 SCT013 BKN030 02/M01 Q1023 NOSIG
  • 151820Z 05010KT 9999 SCT012 BKN025 02/01 Q1023 NOSIG
  • 151750Z VRB01KT 9999 SCT010 BKN030 01/01 Q1022 NOSIG

TAF TAF LSGG
Valide du 15 à 21h jusqu'au 17 à 03h UTC


152025Z 1521/1703 03010KT 9999 FEW015 BKN030 TX02/1615Z TNM03/1605Z
BECMG 1522/1524 BKN012
BECMG 1610/1612 SCT015
ATIS : +41 22 417 40 81



MET'MAP, la Météo Aéronautique d'un coup d'oeil ! - Copyright ORBIFLY Décembre 2007 - Disclaimer

ORBIFLY MET'MAP TEAM :

Programmation & Développement : Alexandra Zaïnal
Sur une idée originale de : Baudouin d'Aumeries
Assistance à la programmation : Marc-Olivier Méhu
Soutien technique & logistique : Manuel Goepfert

Contact : metmap@orbifly.com




SOURCES & CREDITS :

   NOAA